#timestamp,LO_Frequency,Hit,StdDev 
1672250415.5,286046999.9,N
1672250435.4,286047001.0,N
1672250455.2,286046998.5,Y
1672250475.1,286046998.1,P
1672250476.0,286046998.1,N
1672250495.8,286046999.8,N
1672250515.6,286046998.6,N
1672250535.5,286046999.9,N
1672250555.3,286047000.8,N
1672250575.1,286046998.4,N
1672250595.9,286046999.2,N
1672250615.7,286046999.6,N
1672250635.6,286046999.5,N
1672250655.4,286046998.4,N
1672250675.2,286046998.7,N
1672250695.1,286047001.1,N
1672250696.0,286047001.1,N
1672250715.8,286046996.6,Y
1672250735.6,286047001.2,P
1672250755.5,286046998.6,N
1672250775.3,286046998.1,N
1672250795.2,286046998.8,N
1672250815.9,286046999.5,N
1672250835.7,286046999.3,N
1672250855.6,286046999.0,N
1672250875.4,286046999.2,N
1672250895.2,286046999.3,N
1672250915.1,286046999.3,N
1672250916.0,286046999.3,N
1672250935.8,286046996.5,Y
1672250955.7,286047000.7,P
1672250975.5,286047000.4,N
1672250995.3,286046998.5,N
1672251015.2,286047001.2,N
1672251035.0,286046998.8,N
1672251035.9,286046998.8,N
1672251055.8,286046999.3,N
1672251075.6,286046998.8,N
1672251095.4,286046999.0,N
1672251115.3,286046998.3,N
1672251135.1,286047001.0,N
1672251155.8,286047000.5,N
1672251175.7,286047000.3,N
1672251195.5,286046999.9,N
1672251215.3,286047000.5,N
1672251235.2,286046998.6,N
1672251255.0,286047001.1,N
1672251255.9,286047001.1,N
1672251275.8,286046998.5,N
1672251295.6,286046998.9,N
1672251315.4,286046999.5,N
1672251335.3,286046999.0,N
1672251355.1,286046999.3,N
1672251375.9,286046998.7,N
1672251395.7,286046999.1,N
1672251415.5,286046999.2,N
1672251435.4,286046998.7,N
1672251455.2,286046999.4,N
1672251475.0,286046996.9,Y
1672251476.0,286046996.9,P
1672251495.8,286046996.7,N
1672251515.6,286046996.7,N
1672251535.5,286046999.2,N
1672251555.3,286046998.4,N
1672251575.1,286046998.6,N
1672251595.9,286047000.7,N
1672251615.7,286046998.6,N
1672251635.6,286046998.5,N
1672251655.4,286046998.3,N
1672251675.2,286046998.4,N
1672251695.1,286046998.5,N
1672251696.0,286046998.5,N
1672251715.8,286047000.9,N
1672251735.6,286046998.8,N
1672251755.5,286046998.5,N
1672251775.3,286046998.2,N
1672251795.2,286046998.7,N
1672251815.9,286046999.1,N
1672251835.7,286046999.1,N
1672251855.6,286046998.9,N
1672251875.4,286046999.4,N
1672251895.2,286046999.3,N
1672251915.1,286046996.5,Y
1672251916.0,286046996.5,P
1672251935.8,286046998.7,N
1672251955.7,286047000.7,N
1672251975.5,286047001.1,N
1672251995.3,286047000.8,N
1672252015.2,286047001.2,N
1672252035.9,286047001.1,N
1672252055.7,286047000.6,N
1672252075.6,286047000.9,N
1672252095.4,286047002.3,N
1672252115.2,286047002.2,N
1672252135.1,286047002.6,N
1672252136.0,286047002.6,N
1672252155.8,286047002.4,N
1672252175.7,286047003.8,N
1672252195.5,286047003.1,N
1672252215.3,286047003.5,N
1672252235.2,286047003.9,N
1672252255.0,286047004.3,N
1672252255.9,286047004.3,N
1672252275.8,286047003.9,N
1672252295.6,286047003.6,N
1672252315.4,286047005.1,N
1672252335.3,286047005.9,N
1672252355.1,286047003.7,N
1672252375.9,286047004.3,N
1672252395.7,286047003.9,N
1672252415.1,286047004.2,N
1672252416.0,286047004.2,N
1672252435.8,286047003.2,N
1672252455.6,286047003.6,N
1672252475.5,286047003.7,N
1672252495.3,286047003.5,N
1672252515.2,286047003.6,N
1672252535.9,286047005.8,Y
1672252555.7,286047002.0,P
1672252575.6,286047002.0,P
1672252595.4,286047002.5,P
1672252615.2,286047002.4,Y
1672252635.1,286046999.1,P
1672252636.0,286046999.1,N
1672252655.8,286046998.4,N
1672252675.7,286047000.8,N
1672252695.5,286047000.6,N
1672252715.4,286047000.4,N
1672252735.2,286046998.5,N
1672252755.0,286047000.6,N
1672252755.9,286047000.6,N
1672252775.8,286047002.6,N
1672252795.6,286046999.8,N
1672252815.4,286047002.7,N
1672252835.3,286047000.4,N
1672252855.1,286047000.3,N
1672252875.9,286047002.2,N
1672252895.7,286047002.3,N
1672252915.5,286047000.2,N
1672252935.4,286047000.2,N
1672252955.2,286047002.1,N
1672252975.0,286047002.3,N
1672252975.9,286047002.3,N
1672252995.8,286047002.2,N
1672253015.6,286046999.7,N
1672253035.4,286047002.3,N
1672253055.3,286047002.5,N
1672253075.1,286047002.3,N
1672253095.9,286047002.1,N
1672253115.7,286047002.0,N
1672253135.5,286047001.6,N
1672253155.4,286047002.1,N
1672253175.2,286047002.2,N
1672253195.0,286047002.2,N
1672253196.0,286047002.2,N
1672253215.8,286047002.3,N
1672253235.6,286047002.1,N
1672253255.5,286047001.4,N
1672253275.3,286047001.4,N
1672253295.1,286047001.5,N
1672253315.9,286047002.2,N
1672253335.7,286047002.2,N
1672253355.6,286047002.5,N
1672253375.4,286047000.2,N
1672253395.2,286046999.9,N
1672253415.1,286047000.2,N
1672253416.0,286047000.2,N
1672253435.8,286046999.9,N
1672253455.6,286047000.1,N
1672253475.5,286047002.1,N
1672253495.3,286047002.1,N
1672253515.2,286047002.0,N
1672253535.9,286047002.4,N
1672253555.7,286047002.5,N
1672253575.6,286047002.8,Y
1672253595.4,286047000.9,P
1672253615.3,286047000.9,N
1672253635.1,286047000.5,N
1672253636.0,286047000.5,N
1672253655.8,286047000.3,N
1672253675.7,286047000.9,N
1672253695.5,286047000.7,N
1672253715.3,286047001.2,Y
1672253735.2,286046999.4,P
1672253755.0,286046998.7,N
1672253755.9,286046998.7,N
1672253775.8,286047000.8,N
1672253795.6,286046998.3,N
1672253815.5,286047001.0,N
1672253835.5,286047000.1,N
1672253855.4,286047001.6,N
1672253875.2,286047001.6,N
1672253895.1,286047002.0,N
1672253896.0,286047002.0,N
1672253915.8,286047001.4,N
1672253935.6,286047002.4,N
1672253955.5,286047002.1,N
1672253975.3,286047001.6,N
1672253995.2,286047003.9,N
